User: anonymous   Login
Location: Camp Creek
(33.9000°N, 111.8167°W)
Time: 06:43:47
(UTC-07:00)
Language:

DELTA 2 R/B (1) - Orbit

View from above orbital plane
View from above orbital plane
View from above satellite
View from above satellite

Ground track
Ground track

The orbit data is extracted from the following two-line orbital elements,

1 27665U 03005C   16345.50457807  .00000026  00000-0  43998-4 0  9994
2 27665  39.5771 350.9888 0008430 124.3656  10.4890 14.28429310723944
Epoch (UTC): 10 December 2016 12:06:35
Eccentricity: 0.0008430
inclination: 39.5771°
perigee height: 791 km
apogee height: 803 km
right ascension of ascending node: 350.9888°
argument of perigee: 124.3656°
revolutions per day: 14.28429310
mean anomaly at epoch: 10.4890°
orbit number at epoch: 72394

The dashed part of the orbit path shows where the satellite is in the earth's shadow,  

DLR